This is the latest recevied weather packets stored in our database for station/object 9W2CHF-4. If no packets are shown the sender has not sent any weather packets the latest 10 day(s).
| Time | Temp. | Humidity | Pressure | Rain* | Wind** | Luminosity | Snow |
|---|---|---|---|---|---|---|---|
| 1777766906 | 31.67° C | 67% | 1009.6 hPa | - | - | - | - |
| 1777765106 | 31.11° C | 71% | 1009.3 hPa | - | - | - | - |
| 1777764206 | 31.67° C | 72% | 1009.1 hPa | - | - | - | - |
| 1777763306 | 31.11° C | 70% | 1009 hPa | - | - | - | - |
| 1777760605 | 31.67° C | 73% | 1008.9 hPa | - | - | - | - |
| 1777759705 | 31.67° C | 73% | 1008.8 hPa | - | - | - | - |
| 1777757905 | 31.67° C | 72% | 1008.9 hPa | - | - | - | - |
| 1777757005 | 31.67° C | 72% | 1008.9 hPa | - | - | - | - |
| 1777754307 | 31.67° C | 74% | 1009.1 hPa | - | - | - | - |
| 1777752507 | 32.22° C | 74% | 1008.8 hPa | - | - | - | - |
| 1777750707 | 32.22° C | 73% | 1008.9 hPa | - | - | - | - |
| 1777749807 | 32.22° C | 73% | 1009.1 hPa | - | - | - | - |
| 1777744409 | 32.78° C | 82% | 1009.6 hPa | - | - | - | - |
| 1777741706 | 32.78° C | 83% | 1010.1 hPa | - | - | - | - |
| 1777739906 | 32.78° C | 82% | 1010.6 hPa | - | - | - | - |
| 1777738106 | 32.78° C | 82% | 1010.9 hPa | - | - | - | - |
| 1777736306 | 33.33° C | 80% | 1010.9 hPa | - | - | - | - |
| 1777735406 | 32.78° C | 81% | 1011 hPa | - | - | - | - |
| 1777734506 | 32.78° C | 81% | 1010.8 hPa | - | - | - | - |
| 1777732706 | 33.33° C | 80% | 1010.8 hPa | - | - | - | - |
| 1777731806 | 33.33° C | 80% | 1010.7 hPa | - | - | - | - |
| 1777730906 | 33.33° C | 80% | 1010.5 hPa | - | - | - | - |
| 1777729105 | 33.33° C | 80% | 1010 hPa | - | - | - | - |
| 1777728205 | 33.33° C | 79% | 1009.9 hPa | - | - | - | - |
| 1777727305 | 33.33° C | 78% | 1009.5 hPa | - | - | - | - |
* Rain since midnight (hover to see other rain measurements)
** Current wind speed in m/s (hover to see current wind gust speed)